Wichita Falls, TX

8:52 AM CDT on April 21, 2018 (GMT -0500)
Sheppard Air Force Base-Wichita Falls Municipal

Weather History for KSPS - June, 2013

Change the Weather History Date:

Thursday, June 13, 2013

  Actual Average Record
Temperature  
Mean Temperature 86 °F 79 °F  
Max Temperature 97 °F 91 °F 108 °F (1942)
Min Temperature 74 °F 67 °F 55 °F (1985)
Degree Days  
Heating Degree Days 0 0  
Month to date heating degree days 0  
Since 1 June heating degree days 0  
Since 1 July heating degree days 2968  
Cooling Degree Days 21 14  
Month to date cooling degree days 182 164  
Year to date cooling degree days 552 483  
Since 1 June cooling degree days 164  
Growing Degree Days 35 (Base 50)    
Moisture  
Dew Point 67 °F    
Average Humidity 60    
Maximum Humidity 84    
Minimum Humidity 36    
Precipitation  
Precipitation 0.00 in 0.15 in 2.47 in (1935)
Month to date precipitation 2.08 2.16  
Year to date precipitation 9.35 13.65  
Sea Level Pressure  
Sea Level Pressure 29.93 in    
Wind  
Wind Speed 9 mph (South)    
Max Wind Speed 16 mph    
Max Gust Speed 21 mph    
Visibility 10 miles    
Events      
T = Trace of Precipitation, MM = Missing Value Source: NWS Daily Summary

Daily Weather History Graph

Daily Weather History Graph

Search for Another Location

Airport or City:

Astronomy

Jun. 13, 2013 Rise Set
Actual Time 6:22 AM CDT 8:46 PM CDT
Civil Twilight 5:53 AM CDT 9:15 PM CDT
Nautical Twilight 5:17 AM CDT 9:51 PM CDT
Astronomical Twilight 4:37 AM CDT 10:30 PM CDT
Moon 10:50 AM CDT (6/13) No Moon Set
Length of Visible Light 15h 22m
Length of Day
14h 23m
Waxing Crescent, 22% of the Moon is Illuminated
Jun 13
Waxing Crescent
Jun 16
First Quarter
Jun 23
Full
Jun 29
Last Quarter
Jul 8
New

Hourly Weather History & Observations

Time (CDT) Temp. Heat Index Dew Point Humidity Pressure Visibility Wind Dir Wind Speed Gust Speed Precip Events Conditions
12:52 AM 75.9 °F - 68.0 °F 76% 29.92 in 10.0 mi South 8.1 mph - N/A   Clear
1:52 AM 73.9 °F - 68.0 °F 82% 29.93 in 10.0 mi South 4.6 mph - N/A   Clear
2:52 AM 75.0 °F - 68.0 °F 79% 29.93 in 10.0 mi South 9.2 mph - N/A   Clear
3:52 AM 73.9 °F - 66.9 °F 79% 29.93 in 10.0 mi South 9.2 mph - N/A   Clear
4:52 AM 75.9 °F - 68.0 °F 76% 29.93 in 10.0 mi SSW 10.4 mph - N/A   Clear
5:52 AM 77.0 °F - 68.0 °F 74% 29.95 in 10.0 mi SSW 11.5 mph - N/A   Clear
6:52 AM 75.9 °F - 66.9 °F 74% 29.97 in 10.0 mi SSW 9.2 mph - N/A   Partly Cloudy
7:52 AM 79.0 °F - 66.9 °F 66% 29.97 in 10.0 mi SSW 11.5 mph - N/A   Partly Cloudy
8:52 AM 82.0 °F 84.9 °F 68.0 °F 62% 29.99 in 10.0 mi SW 12.7 mph - N/A   Partly Cloudy
9:52 AM 84.9 °F 88.2 °F 68.0 °F 57% 30.00 in 10.0 mi SW 13.8 mph - N/A   Partly Cloudy
10:52 AM 88.0 °F 92.1 °F 69.1 °F 53% 29.99 in 10.0 mi SSW 11.5 mph - N/A   Partly Cloudy
11:52 AM 91.0 °F 95.2 °F 68.0 °F 47% 29.99 in 10.0 mi SW 9.2 mph - N/A   Clear
12:52 PM 93.0 °F 97.4 °F 68.0 °F 44% 29.98 in 10.0 mi SW 10.4 mph 16.1 mph N/A   Partly Cloudy
1:52 PM 93.9 °F 98.6 °F 68.0 °F 43% 29.96 in 10.0 mi SSW 10.4 mph 17.3 mph N/A   Scattered Clouds
2:52 PM 96.1 °F 99.3 °F 66.0 °F 37% 29.93 in 10.0 mi SSE 9.2 mph 18.4 mph N/A   Partly Cloudy
3:52 PM 96.1 °F 99.3 °F 66.0 °F 37% 29.90 in 10.0 mi South 6.9 mph - N/A   Partly Cloudy
4:52 PM 96.1 °F 99.3 °F 66.0 °F 37% 29.87 in 10.0 mi SSE 10.4 mph 17.3 mph N/A   Partly Cloudy
5:52 PM 96.1 °F 99.3 °F 66.0 °F 37% 29.86 in 10.0 mi SE 9.2 mph 17.3 mph N/A   Partly Cloudy
6:52 PM 95.0 °F 97.4 °F 64.9 °F 37% 29.84 in 10.0 mi South 12.7 mph - N/A   Partly Cloudy
7:52 PM 93.0 °F 94.6 °F 64.0 °F 38% 29.84 in 10.0 mi SE 12.7 mph - N/A   Clear
8:52 PM 88.0 °F 92.1 °F 69.1 °F 53% 29.86 in 10.0 mi ESE 9.2 mph - N/A   Clear
9:52 PM 84.9 °F 88.2 °F 68.0 °F 57% 29.88 in 10.0 mi ESE 9.2 mph - N/A   Clear
10:52 PM 82.9 °F 85.8 °F 68.0 °F 60% 29.89 in 10.0 mi SE 8.1 mph - N/A   Clear
11:52 PM 79.0 °F - 66.9 °F 66% 29.90 in 10.0 mi SE 5.8 mph - N/A   Clear